| time (UTC) | temp F | wind direction | speed MPH | gust MPH | rain 1hr in | rain 24hr in | rain mn in | humidity % | barometer mb |
| 20260505211520 | 82 | 4 | 3.0 | 8.0 | 0.00 | 0.01 | 0.00 | 31 | 1008.4 |
| 20260505211020 | 82 | 100 | 4.0 | 9.0 | 0.00 | 0.01 | 0.00 | 32 | 1008.4 |
| 20260505210520 | 82 | 11 | 3.0 | 10.0 | 0.00 | 0.01 | 0.00 | 32 | 1008.3 |
| 20260505210020 | 82 | 124 | 4.0 | 8.0 | 0.00 | 0.01 | 0.00 | 32 | 1008.2 |
| 20260505205540 | 83 | 317 | 4.0 | 9.0 | 0.00 | 0.01 | 0.00 | 32 | 1008.3 |
| 20260505205018 | 83 | 100 | 3.0 | 11.0 | 0.00 | 0.01 | 0.00 | 32 | 1008.2 |
| 20260505204518 | 83 | 271 | 4.0 | 10.0 | 0.00 | 0.01 | 0.00 | 33 | 1008.3 |
| 20260505204017 | 83 | 335 | 3.0 | 8.0 | 0.00 | 0.01 | 0.00 | 33 | 1008.2 |
| 20260505203518 | 83 | 349 | 2.0 | 6.0 | 0.00 | 0.01 | 0.00 | 34 | 1008.2 |
| 20260505203018 | 83 | 70 | 3.0 | 8.0 | 0.00 | 0.01 | 0.00 | 35 | 1008.2 |
| 20260505202518 | 83 | 9 | 2.0 | 8.0 | 0.00 | 0.01 | 0.00 | 35 | 1008.2 |
| 20260505202038 | 82 | 11 | 3.0 | 10.0 | 0.00 | 0.01 | 0.00 | 34 | 1008.3 |
| 20260505201521 | 82 | 45 | 3.0 | 8.0 | 0.00 | 0.01 | 0.00 | 34 | 1008.4 |
| 20260505201018 | 83 | 103 | 4.0 | 9.0 | 0.00 | 0.01 | 0.00 | 34 | 1008.4 |
| 20260505200518 | 83 | 29 | 3.0 | 12.0 | 0.00 | 0.01 | 0.00 | 34 | 1008.4 |
| 20260505200019 | 83 | 16 | 3.0 | 10.0 | 0.00 | 0.01 | 0.00 | 35 | 1008.5 |
| 20260505195519 | 82 | 344 | 2.0 | 6.0 | 0.00 | 0.01 | 0.00 | 38 | 1008.4 |
| 20260505195018 | 82 | 77 | 3.0 | 9.0 | 0.00 | 0.01 | 0.00 | 37 | 1008.5 |
| 20260505194639 | 82 | 96 | 3.0 | 11.0 | 0.00 | 0.01 | 0.00 | 37 | 1008.6 |
| 20260505194019 | 82 | 19 | 4.0 | 9.0 | 0.00 | 0.01 | 0.00 | 38 | 1008.6 |
| 20260505193519 | 82 | 50 | 3.0 | 10.0 | 0.00 | 0.01 | 0.00 | 39 | 1008.6 |
| 20260505193019 | 82 | 169 | 3.0 | 9.0 | 0.00 | 0.01 | 0.00 | 39 | 1008.7 |
| 20260505192519 | 82 | 17 | 3.0 | 9.0 | 0.00 | 0.01 | 0.00 | 38 | 1008.8 |
| 20260505192019 | 82 | 3 | 3.0 | 7.0 | 0.00 | 0.01 | 0.00 | 38 | 1008.8 |
| 20260505191639 | 82 | 12 | 3.0 | 8.0 | 0.00 | 0.01 | 0.00 | 38 | 1008.9 |
| 20260505191019 | 82 | 81 | 3.0 | 12.0 | 0.00 | 0.01 | 0.00 | 39 | 1008.9 |
| 20260505190539 | 82 | 70 | 2.0 | 5.0 | 0.00 | 0.01 | 0.00 | 39 | 1008.9 |
| 20260505190019 | 82 | 43 | 4.0 | 9.0 | 0.00 | 0.01 | 0.00 | 39 | 1009.1 |
| 20260505185519 | 82 | 44 | 3.0 | 8.0 | 0.00 | 0.01 | 0.00 | 39 | 1009.1 |
| 20260505185019 | 82 | 341 | 3.0 | 9.0 | 0.00 | 0.01 | 0.00 | 39 | 1009.2 |
| 20260505184520 | 82 | 20 | 3.0 | 7.0 | 0.00 | 0.02 | 0.00 | 40 | 1009.3 |
| 20260505184020 | 82 | 35 | 4.0 | 12.0 | 0.00 | 0.02 | 0.00 | 40 | 1009.3 |
| 20260505183520 | 82 | 355 | 3.0 | 6.0 | 0.00 | 0.02 | 0.00 | 39 | 1009.5 |
| 20260505183037 | 82 | 37 | 4.0 | 10.0 | 0.00 | 0.02 | 0.00 | 40 | 1009.6 |
| 20260505182517 | 82 | 328 | 3.0 | 9.0 | 0.00 | 0.02 | 0.00 | 41 | 1009.5 |
| 20260505182037 | 82 | 35 | 3.0 | 10.0 | 0.00 | 0.02 | 0.00 | 41 | 1009.6 |
| 20260505181520 | 82 | 52 | 3.0 | 7.0 | 0.00 | 0.02 | 0.00 | 40 | 1009.6 |
| 20260505181041 | 82 | 80 | 3.0 | 9.0 | 0.00 | 0.02 | 0.00 | 42 | 1009.7 |
| 20260505180520 | 81 | 355 | 4.0 | 11.0 | 0.00 | 0.02 | 0.00 | 42 | 1009.7 |
| 20260505180020 | 82 | 16 | 3.0 | 10.0 | 0.00 | 0.02 | 0.00 | 41 | 1009.7 |
| 20260505175518 | 82 | 283 | 3.0 | 9.0 | 0.00 | 0.02 | 0.00 | 42 | 1009.9 |
| 20260505175038 | 81 | 85 | 2.0 | 7.0 | 0.00 | 0.02 | 0.00 | 42 | 1009.8 |
| 20260505174518 | 81 | 13 | 3.0 | 7.0 | 0.00 | 0.02 | 0.00 | 43 | 1009.8 |
| 20260505174018 | 80 | 329 | 3.0 | 7.0 | 0.00 | 0.02 | 0.00 | 43 | 1009.9 |
| 20260505173518 | 81 | 52 | 3.0 | 13.0 | 0.00 | 0.02 | 0.00 | 43 | 1010.0 |
| 20260505173018 | 81 | 95 | 3.0 | 9.0 | 0.00 | 0.02 | 0.00 | 43 | 1010.0 |
| 20260505172518 | 81 | 323 | 3.0 | 10.0 | 0.00 | 0.02 | 0.00 | 45 | 1010.0 |
| 20260505172018 | 81 | 319 | 3.0 | 9.0 | 0.00 | 0.02 | 0.00 | 44 | 1010.1 |
| 20260505171521 | 81 | 34 | 3.0 | 8.0 | 0.00 | 0.02 | 0.00 | 45 | 1010.1 |
| 20260505171018 | 80 | 83 | 2.0 | 6.0 | 0.00 | 0.02 | 0.00 | 46 | 1010.2 |
| 20260505170518 | 80 | 115 | 4.0 | 10.0 | 0.00 | 0.02 | 0.00 | 46 | 1010.2 |
| 20260505170039 | 80 | 122 | 2.0 | 8.0 | 0.00 | 0.02 | 0.00 | 46 | 1010.2 |
| 20260505165518 | 80 | 317 | 2.0 | 7.0 | 0.00 | 0.02 | 0.00 | 46 | 1010.3 |
| 20260505165018 | 79 | 114 | 3.0 | 7.0 | 0.00 | 0.02 | 0.00 | 47 | 1010.3 |
| 20260505164519 | 79 | 37 | 3.0 | 7.0 | 0.00 | 0.02 | 0.00 | 47 | 1010.2 |
| 20260505164059 | 79 | 79 | 3.0 | 12.0 | 0.00 | 0.02 | 0.00 | 47 | 1010.3 |
| 20260505163519 | 79 | 135 | 3.0 | 8.0 | 0.00 | 0.02 | 0.00 | 48 | 1010.3 |
| 20260505163019 | 79 | 123 | 3.0 | 8.0 | 0.00 | 0.02 | 0.00 | 48 | 1010.3 |
| 20260505162519 | 79 | 96 | 3.0 | 6.0 | 0.00 | 0.02 | 0.00 | 46 | 1010.4 |
| 20260505162040 | 80 | 91 | 2.0 | 5.0 | 0.00 | 0.02 | 0.00 | 46 | 1010.5 |
| 20260505161519 | 80 | 132 | 2.0 | 7.0 | 0.00 | 0.02 | 0.00 | 46 | 1010.5 |
| 20260505161019 | 79 | 34 | 2.0 | 5.0 | 0.00 | 0.02 | 0.00 | 45 | 1010.6 |
| 20260505160520 | 79 | 348 | 3.0 | 7.0 | 0.00 | 0.02 | 0.00 | 44 | 1010.6 |
| 20260505153017 | 77 | 95 | 2.0 | 5.0 | 0.00 | 0.02 | 0.00 | 47 | 1010.9 |
| 20260505152520 | 77 | 120 | 3.0 | 9.0 | 0.00 | 0.02 | 0.00 | 46 | 1011.0 |
| 20260505152020 | 77 | 45 | 3.0 | 9.0 | 0.00 | 0.02 | 0.00 | 46 | 1011.1 |
| 20260505151520 | 77 | 60 | 2.0 | 5.0 | 0.00 | 0.02 | 0.00 | 48 | 1011.0 |
| 20260505151020 | 76 | 46 | 3.0 | 7.0 | 0.00 | 0.02 | 0.00 | 48 | 1011.0 |
| 20260505150538 | 76 | 91 | 2.0 | 8.0 | 0.00 | 0.02 | 0.00 | 48 | 1010.9 |
| 20260505140519 | 73 | 340 | 3.0 | 9.0 | 0.00 | 0.02 | 0.00 | 53 | 1011.6 |
| 20260505125017 | 67 | 117 | 2.0 | 9.0 | 0.00 | 0.02 | 0.00 | 63 | 1011.5 |
| 20260505124517 | 66 | 349 | 2.0 | 4.0 | 0.00 | 0.02 | 0.00 | 63 | 1011.5 |
| 20260505124017 | 65 | 68 | 2.0 | 8.0 | 0.00 | 0.02 | 0.00 | 65 | 1011.5 |
| 20260505123520 | 65 | 292 | 1.0 | 4.0 | 0.00 | 0.02 | 0.00 | 67 | 1011.4 |
| 20260505123020 | 64 | 17 | 2.0 | 6.0 | 0.00 | 0.02 | 0.00 | 67 | 1011.5 |
| 20260505122520 | 64 | 114 | 2.0 | 5.0 | 0.00 | 0.02 | 0.00 | 67 | 1011.5 |
| 20260505122020 | 64 | 151 | 2.0 | 4.0 | 0.00 | 0.02 | 0.00 | 68 | 1011.5 |
| 20260505121540 | 64 | 93 | 2.0 | 4.0 | 0.00 | 0.02 | 0.00 | 68 | 1011.6 |
| 20260505121038 | 63 | 90 | 1.0 | 7.0 | 0.00 | 0.02 | 0.00 | 69 | 1011.7 |
| 20260505120518 | 62 | 61 | 1.0 | 4.0 | 0.00 | 0.02 | 0.00 | 70 | 1011.6 |
| 20260505120018 | 61 | 111 | 2.0 | 5.0 | 0.00 | 0.02 | 0.00 | 74 | 1011.6 |
| 20260505115558 | 59 | 120 | 1.0 | 3.0 | 0.00 | 0.02 | 0.00 | 79 | 1011.7 |
| 20260505115018 | 57 | 92 | 1.0 | 3.0 | 0.00 | 0.02 | 0.00 | 82 | 1011.7 |
| 20260505114518 | 56 | 105 | 1.0 | 2.0 | 0.00 | 0.02 | 0.00 | 86 | 1011.6 |
| 20260505114018 | 55 | 142 | 1.0 | 3.0 | 0.00 | 0.02 | 0.00 | 88 | 1011.4 |
| 20260505113521 | 54 | 108 | 1.0 | 2.0 | 0.00 | 0.02 | 0.00 | 90 | 1011.3 |
| 20260505113018 | 54 | 114 | 0.0 | 2.0 | 0.00 | 0.02 | 0.00 | 91 | 1011.3 |
| 20260505112518 | 53 | 122 | 1.0 | 2.0 | 0.00 | 0.02 | 0.00 | 91 | 1011.2 |
| 20260505112018 | 53 | 120 | 1.0 | 3.0 | 0.00 | 0.02 | 0.00 | 92 | 1011.2 |
| 20260505111518 | 53 | 117 | 0.0 | 1.0 | 0.00 | 0.02 | 0.00 | 92 | 1011.2 |
| 20260505111018 | 53 | 129 | 1.0 | 2.0 | 0.00 | 0.02 | 0.00 | 92 | 1011.2 |
| 20260505110539 | 53 | 115 | 1.0 | 2.0 | 0.00 | 0.02 | 0.00 | 91 | 1011.2 |
| 20260505102019 | 54 | 132 | 2.0 | 3.0 | 0.00 | 0.02 | 0.00 | 89 | 1011.2 |
| 20260505101519 | 54 | 122 | 1.0 | 2.0 | 0.00 | 0.02 | 0.00 | 88 | 1011.3 |
| 20260505101020 | 54 | 128 | 1.0 | 2.0 | 0.00 | 0.02 | 0.00 | 88 | 1011.2 |
| 20260505100520 | 54 | 125 | 0.0 | 1.0 | 0.00 | 0.02 | 0.00 | 87 | 1011.2 |
| 20260505100040 | 54 | 118 | 1.0 | 2.0 | 0.00 | 0.02 | 0.00 | 86 | 1011.1 |
| 20260505095519 | 55 | 131 | 2.0 | 3.0 | 0.00 | 0.02 | 0.00 | 86 | 1011.1 |
| 20260505095037 | 55 | 151 | 1.0 | 3.0 | 0.00 | 0.02 | 0.00 | 84 | 1011.1 |
| 20260505094517 | 55 | 125 | 2.0 | 3.0 | 0.00 | 0.02 | 0.00 | 85 | 1011.1 |
| 20260505094017 | 55 | 140 | 1.0 | 3.0 | 0.00 | 0.02 | 0.00 | 84 | 1011.0 |
| 20260505093520 | 56 | 140 | 1.0 | 3.0 | 0.00 | 0.02 | 0.00 | 82 | 1011.0 |
| 20260505093020 | 55 | 125 | 1.0 | 3.0 | 0.00 | 0.02 | 0.00 | 83 | 1010.9 |
| 20260505092540 | 55 | 132 | 2.0 | 3.0 | 0.00 | 0.02 | 0.00 | 83 | 1010.7 |
| 20260505092020 | 55 | 144 | 1.0 | 2.0 | 0.00 | 0.02 | 0.00 | 83 | 1010.6 |
| 20260505091520 | 55 | 123 | 2.0 | 4.0 | 0.00 | 0.02 | 0.00 | 83 | 1010.6 |
| 20260505091038 | 56 | 125 | 2.0 | 3.0 | 0.00 | 0.02 | 0.00 | 83 | 1010.6 |
| 20260505090538 | 56 | 142 | 1.0 | 2.0 | 0.00 | 0.02 | 0.00 | 83 | 1010.6 |
| 20260505090018 | 57 | 138 | 1.0 | 3.0 | 0.00 | 0.02 | 0.00 | 81 | 1010.5 |
| 20260505085518 | 57 | 143 | 1.0 | 2.0 | 0.00 | 0.02 | 0.00 | 79 | 1010.6 |
| 20260505085017 | 58 | 106 | 2.0 | 4.0 | 0.00 | 0.02 | 0.00 | 78 | 1010.6 |
| 20260505084539 | 58 | 125 | 1.0 | 3.0 | 0.00 | 0.02 | 0.00 | 78 | 1010.6 |
| 20260505084018 | 58 | 120 | 1.0 | 3.0 | 0.00 | 0.02 | 0.00 | 77 | 1010.6 |
| 20260505083521 | 58 | 135 | 1.0 | 4.0 | 0.00 | 0.02 | 0.00 | 77 | 1010.6 |
| 20260505083018 | 58 | 129 | 1.0 | 5.0 | 0.00 | 0.02 | 0.00 | 78 | 1010.6 |
| 20260505082521 | 58 | 117 | 1.0 | 3.0 | 0.00 | 0.02 | 0.00 | 78 | 1010.7 |
| 20260505082018 | 57 | 119 | 1.0 | 3.0 | 0.00 | 0.02 | 0.00 | 78 | 1010.6 |
| 20260505081559 | 57 | 149 | 2.0 | 4.0 | 0.00 | 0.02 | 0.00 | 78 | 1010.6 |
| 20260505081018 | 57 | 127 | 2.0 | 5.0 | 0.00 | 0.02 | 0.00 | 78 | 1010.6 |
| 20260505080519 | 56 | 120 | 2.0 | 5.0 | 0.00 | 0.02 | 0.00 | 80 | 1010.7 |
| 20260505080019 | 56 | 145 | 2.0 | 4.0 | 0.00 | 0.02 | 0.00 | 80 | 1010.7 |
| 20260505075519 | 56 | 145 | 2.0 | 3.0 | 0.00 | 0.02 | 0.00 | 81 | 1010.8 |
| 20260505075019 | 55 | 115 | 1.0 | 3.0 | 0.00 | 0.02 | 0.00 | 81 | 1010.8 |
| 20260505074519 | 55 | 131 | 1.0 | 4.0 | 0.00 | 0.02 | 0.00 | 81 | 1010.6 |
| 20260505074019 | 54 | 129 | 2.0 | 4.0 | 0.00 | 0.02 | 0.00 | 84 | 1010.5 |
| 20260505073519 | 54 | 138 | 1.0 | 3.0 | 0.00 | 0.02 | 0.00 | 85 | 1010.6 |
| 20260505073019 | 54 | 141 | 1.0 | 3.0 | 0.00 | 0.02 | 0.00 | 85 | 1010.5 |
| 20260505072519 | 54 | 149 | 1.0 | 3.0 | 0.00 | 0.02 | 0.00 | 84 | 1010.6 |
| 20260505072019 | 54 | 136 | 2.0 | 3.0 | 0.00 | 0.02 | 0.00 | 85 | 1010.5 |
| 20260505071520 | 54 | 150 | 2.0 | 4.0 | 0.00 | 0.02 | 0.00 | 85 | 1010.5 |
| 20260505071019 | 53 | 133 | 1.0 | 3.0 | 0.00 | 0.02 | 0.00 | 86 | 1010.5 |
| 20260505070539 | 53 | 134 | 2.0 | 4.0 | 0.00 | 0.02 | 0.00 | 86 | 1010.5 |
| 20260505070020 | 53 | 142 | 1.0 | 2.0 | 0.00 | 0.02 | 0.00 | 86 | 1010.5 |
| 20260505065517 | 53 | 134 | 2.0 | 3.0 | 0.00 | 0.02 | 0.00 | 86 | 1010.4 |
| 20260505065037 | 53 | 138 | 1.0 | 3.0 | 0.00 | 0.02 | 0.00 | 85 | 1010.4 |
| 20260505064517 | 53 | 149 | 2.0 | 3.0 | 0.00 | 0.02 | 0.00 | 86 | 1010.4 |
| 20260505064017 | 53 | 133 | 2.0 | 3.0 | 0.00 | 0.02 | 0.00 | 87 | 1010.3 |
| 20260505063600 | 53 | 139 | 2.0 | 3.0 | 0.00 | 0.02 | 0.00 | 87 | 1010.4 |
| 20260505063021 | 53 | 147 | 1.0 | 3.0 | 0.00 | 0.02 | 0.00 | 87 | 1010.4 |
| 20260505062520 | 53 | 131 | 2.0 | 3.0 | 0.00 | 0.02 | 0.00 | 87 | 1010.4 |
| 20260505062017 | 53 | 139 | 1.0 | 3.0 | 0.00 | 0.02 | 0.00 | 87 | 1010.4 |
| 20260505061518 | 53 | 139 | 1.0 | 3.0 | 0.00 | 0.02 | 0.00 | 87 | 1010.4 |
| 20260505061058 | 53 | 132 | 2.0 | 3.0 | 0.00 | 0.02 | 0.00 | 87 | 1010.4 |
| 20260505060517 | 53 | 131 | 2.0 | 3.0 | 0.00 | 0.02 | 0.00 | 87 | 1010.4 |
| 20260505060058 | 52 | 136 | 1.0 | 2.0 | 0.00 | 0.02 | 0.00 | 87 | 1010.4 |
| 20260505055538 | 52 | 130 | 2.0 | 3.0 | 0.00 | 0.02 | 0.00 | 87 | 1010.4 |
| 20260505055018 | 52 | 130 | 2.0 | 3.0 | 0.00 | 0.02 | 0.00 | 87 | 1010.5 |
| 20260505054521 | 52 | 138 | 2.0 | 3.0 | 0.00 | 0.02 | 0.00 | 86 | 1010.6 |
| 20260505054018 | 53 | 129 | 2.0 | 3.0 | 0.00 | 0.02 | 0.00 | 86 | 1010.6 |
| 20260505053539 | 53 | 132 | 2.0 | 3.0 | 0.00 | 0.02 | 0.00 | 86 | 1010.6 |
| 20260505053018 | 53 | 132 | 2.0 | 2.0 | 0.00 | 0.02 | 0.00 | 85 | 1010.7 |
| 20260505052518 | 53 | 129 | 2.0 | 3.0 | 0.00 | 0.02 | 0.00 | 85 | 1010.7 |
| 20260505052019 | 53 | 126 | 2.0 | 3.0 | 0.00 | 0.02 | 0.00 | 85 | 1010.7 |
| 20260505051519 | 53 | 129 | 2.0 | 3.0 | 0.00 | 0.02 | 0.00 | 84 | 1010.7 |
| 20260505051018 | 53 | 128 | 1.0 | 2.0 | 0.00 | 0.02 | 0.00 | 83 | 1010.8 |
| 20260505050518 | 54 | 133 | 1.0 | 2.0 | 0.00 | 0.02 | 0.00 | 82 | 1010.7 |
| 20260505041519 | 57 | 132 | 0.0 | 2.0 | 0.00 | 0.02 | 0.00 | 75 | 1010.4 |
| 20260505041017 | 57 | 135 | 1.0 | 2.0 | 0.00 | 0.02 | 0.00 | 74 | 1010.4 |
| 20260505040519 | 57 | 100 | 1.0 | 4.0 | 0.00 | 0.02 | 0.00 | 72 | 1010.3 |
| 20260505040020 | 58 | 98 | 1.0 | 2.0 | 0.00 | 0.02 | 0.00 | 71 | 1010.3 |
| 20260505035520 | 58 | 93 | 1.0 | 2.0 | 0.00 | 0.02 | 0.02 | 70 | 1010.3 |
| 20260505035020 | 58 | 98 | 1.0 | 3.0 | 0.00 | 0.02 | 0.02 | 69 | 1010.4 |
| 20260505034520 | 59 | 25 | 1.0 | 3.0 | 0.00 | 0.02 | 0.02 | 68 | 1010.4 |
| 20260505034017 | 59 | 91 | 0.0 | 3.0 | 0.00 | 0.02 | 0.02 | 67 | 1010.4 |
| 20260505033517 | 59 | 80 | 1.0 | 3.0 | 0.00 | 0.02 | 0.02 | 66 | 1010.4 |
| 20260505033017 | 60 | 106 | 1.0 | 3.0 | 0.00 | 0.02 | 0.02 | 65 | 1010.4 |
| 20260505032517 | 60 | 99 | 1.0 | 3.0 | 0.00 | 0.02 | 0.02 | 65 | 1010.4 |
| 20260505032017 | 60 | 104 | 1.0 | 4.0 | 0.00 | 0.02 | 0.02 | 63 | 1010.5 |
| 20260505031521 | 59 | 179 | 1.0 | 4.0 | 0.00 | 0.02 | 0.02 | 64 | 1010.5 |
| 20260505031020 | 60 | 91 | 1.0 | 3.0 | 0.00 | 0.02 | 0.02 | 64 | 1010.5 |
| 20260505030520 | 60 | 172 | 1.0 | 2.0 | 0.00 | 0.02 | 0.02 | 63 | 1010.6 |
| 20260505030018 | 60 | 110 | 1.0 | 4.0 | 0.00 | 0.02 | 0.02 | 62 | 1010.6 |
| 20260505025520 | 61 | 136 | 1.0 | 4.0 | 0.00 | 0.02 | 0.02 | 61 | 1010.7 |
| 20260505025018 | 61 | 105 | 1.0 | 3.0 | 0.00 | 0.02 | 0.02 | 60 | 1010.7 |
| 20260505024518 | 61 | 107 | 1.0 | 3.0 | 0.00 | 0.02 | 0.02 | 59 | 1010.8 |
| 20260505024018 | 61 | 109 | 1.0 | 3.0 | 0.00 | 0.02 | 0.02 | 58 | 1010.8 |
| 20260505023518 | 61 | 112 | 2.0 | 6.0 | 0.00 | 0.02 | 0.02 | 57 | 1010.7 |
| 20260505023018 | 61 | 113 | 2.0 | 4.0 | 0.00 | 0.02 | 0.02 | 58 | 1010.8 |
| 20260505022518 | 61 | 126 | 1.0 | 4.0 | 0.00 | 0.02 | 0.02 | 57 | 1010.7 |
| 20260505022018 | 61 | 129 | 1.0 | 4.0 | 0.00 | 0.02 | 0.02 | 56 | 1010.7 |
| 20260505021518 | 61 | 110 | 1.0 | 4.0 | 0.00 | 0.02 | 0.02 | 55 | 1010.7 |
| 20260505021019 | 61 | 120 | 1.0 | 3.0 | 0.00 | 0.02 | 0.02 | 56 | 1010.8 |
| 20260505020539 | 61 | 115 | 1.0 | 3.0 | 0.00 | 0.02 | 0.02 | 55 | 1010.9 |
| 20260505020019 | 61 | 130 | 1.0 | 3.0 | 0.00 | 0.02 | 0.02 | 56 | 1010.9 |
| 20260505015519 | 61 | 127 | 1.0 | 3.0 | 0.00 | 0.02 | 0.02 | 56 | 1010.8 |
| 20260505015019 | 60 | 115 | 1.0 | 3.0 | 0.00 | 0.02 | 0.02 | 55 | 1010.8 |
| 20260505014519 | 59 | 123 | 2.0 | 4.0 | 0.00 | 0.02 | 0.02 | 59 | 1010.7 |
| 20260505014019 | 58 | 136 | 1.0 | 3.0 | 0.00 | 0.02 | 0.02 | 63 | 1010.6 |
| 20260505013519 | 58 | 128 | 1.0 | 2.0 | 0.00 | 0.02 | 0.02 | 63 | 1010.6 |
| 20260505013039 | 58 | 144 | 1.0 | 4.0 | 0.00 | 0.02 | 0.02 | 62 | 1010.6 |
| 20260505012519 | 58 | 145 | 1.0 | 2.0 | 0.00 | 0.02 | 0.02 | 62 | 1010.5 |
| 20260505012040 | 59 | 146 | 1.0 | 3.0 | 0.00 | 0.02 | 0.02 | 63 | 1010.4 |
| 20260505011519 | 59 | 149 | 1.0 | 2.0 | 0.00 | 0.02 | 0.02 | 62 | 1010.4 |
| 20260505011020 | 59 | 150 | 1.0 | 3.0 | 0.00 | 0.02 | 0.02 | 60 | 1010.3 |
| 20260505010600 | 59 | 151 | 1.0 | 2.0 | 0.00 | 0.02 | 0.02 | 60 | 1010.2 |
| 20260505010020 | 59 | 131 | 1.0 | 3.0 | 0.00 | 0.02 | 0.02 | 62 | 1010.1 |
| 20260505005540 | 60 | 145 | 1.0 | 3.0 | 0.00 | 0.02 | 0.02 | 60 | 1010.1 |
| 20260505005020 | 60 | 140 | 2.0 | 3.0 | 0.00 | 0.02 | 0.02 | 60 | 1010.1 |
| 20260505004517 | 60 | 141 | 1.0 | 2.0 | 0.00 | 0.02 | 0.02 | 60 | 1010.0 |
| 20260505004017 | 61 | 143 | 1.0 | 3.0 | 0.00 | 0.02 | 0.02 | 57 | 1010.0 |
| 20260505003517 | 61 | 145 | 1.0 | 3.0 | 0.00 | 0.02 | 0.02 | 57 | 1010.0 |
| 20260505003017 | 62 | 152 | 1.0 | 3.0 | 0.00 | 0.02 | 0.02 | 55 | 1010.0 |
| 20260505002517 | 62 | 143 | 2.0 | 4.0 | 0.00 | 0.02 | 0.02 | 55 | 1009.9 |
| 20260505002038 | 62 | 154 | 1.0 | 3.0 | 0.00 | 0.02 | 0.02 | 55 | 1009.9 |
| 20260505001521 | 63 | 150 | 1.0 | 3.0 | 0.00 | 0.02 | 0.02 | 54 | 1009.9 |
| 20260505001041 | 64 | 130 | 1.0 | 3.0 | 0.00 | 0.02 | 0.02 | 53 | 1009.9 |
| 20260505000521 | 64 | 130 | 1.0 | 4.0 | 0.00 | 0.02 | 0.02 | 50 | 1009.8 |
| 20260505000041 | 64 | 128 | 1.0 | 3.0 | 0.00 | 0.02 | 0.02 | 51 | 1009.8 |
| 20260504235518 | 65 | 130 | 2.0 | 5.0 | 0.00 | 0.02 | 0.02 | 50 | 1009.7 |
| 20260504235038 | 66 | 144 | 1.0 | 2.0 | 0.00 | 0.02 | 0.02 | 51 | 1009.7 |
| 20260504234518 | 67 | 156 | 1.0 | 2.0 | 0.00 | 0.02 | 0.02 | 48 | 1009.6 |
| 20260504234018 | 67 | 24 | 1.0 | 5.0 | 0.00 | 0.02 | 0.02 | 44 | 1009.6 |
| 20260504233518 | 68 | 120 | 1.0 | 5.0 | 0.00 | 0.02 | 0.02 | 44 | 1009.5 |
| 20260504233018 | 68 | 86 | 2.0 | 5.0 | 0.00 | 0.02 | 0.02 | 44 | 1009.5 |
| 20260504232518 | 68 | 119 | 1.0 | 3.0 | 0.01 | 0.02 | 0.02 | 44 | 1009.4 |
| 20260504232018 | 69 | 97 | 1.0 | 4.0 | 0.01 | 0.02 | 0.02 | 41 | 1009.4 |
| 20260504231518 | 69 | 107 | 2.0 | 5.0 | 0.01 | 0.02 | 0.02 | 42 | 1009.4 |
| 20260504231019 | 70 | 137 | 1.0 | 3.0 | 0.01 | 0.02 | 0.02 | 42 | 1009.4 |
| 20260504230538 | 70 | 80 | 2.0 | 4.0 | 0.01 | 0.02 | 0.02 | 39 | 1009.4 |
| 20260504230019 | 70 | 82 | 2.0 | 7.0 | 0.01 | 0.02 | 0.02 | 39 | 1009.4 |
| 20260504225519 | 70 | 66 | 2.0 | 5.0 | 0.01 | 0.01 | 0.01 | 39 | 1009.4 |
| 20260504225019 | 70 | 120 | 2.0 | 4.0 | 0.01 | 0.01 | 0.01 | 40 | 1009.4 |
| 20260504224518 | 71 | 54 | 2.0 | 7.0 | 0.01 | 0.01 | 0.01 | 38 | 1009.4 |
| 20260504224019 | 71 | 126 | 2.0 | 6.0 | 0.01 | 0.01 | 0.01 | 38 | 1009.4 |
| 20260504223519 | 71 | 123 | 3.0 | 8.0 | 0.01 | 0.01 | 0.01 | 38 | 1009.4 |
| 20260504223019 | 71 | 47 | 3.0 | 6.0 | 0.01 | 0.01 | 0.01 | 40 | 1009.4 |
| 20260504222537 | 71 | 280 | 1.0 | 3.0 | 0.00 | 0.01 | 0.01 | 39 | 1009.4 |
| 20260504222017 | 72 | 102 | 2.0 | 6.0 | 0.00 | 0.01 | 0.01 | 38 | 1009.4 |
| 20260504221520 | 72 | 101 | 2.0 | 6.0 | 0.00 | 0.01 | 0.01 | 37 | 1009.4 |
| 20260504221020 | 72 | 33 | 2.0 | 5.0 | 0.00 | 0.01 | 0.01 | 38 | 1009.4 |
| 20260504220520 | 73 | 82 | 2.0 | 7.0 | 0.00 | 0.01 | 0.01 | 37 | 1009.4 |
| 20260504220020 | 73 | 132 | 2.0 | 4.0 | 0.00 | 0.01 | 0.01 | 37 | 1009.5 |
| 20260504215520 | 73 | 352 | 2.0 | 7.0 | 0.00 | 0.01 | 0.01 | 37 | 1009.6 |
| 20260504215020 | 73 | 335 | 3.0 | 9.0 | 0.00 | 0.01 | 0.01 | 37 | 1009.6 |
| 20260504214520 | 73 | 312 | 3.0 | 8.0 | 0.00 | 0.01 | 0.01 | 37 | 1009.6 |
| 20260504214038 | 73 | 138 | 3.0 | 6.0 | 0.00 | 0.01 | 0.01 | 37 | 1009.6 |
| 20260504213518 | 73 | 330 | 2.0 | 5.0 | 0.00 | 0.01 | 0.01 | 38 | 1009.7 |
| 20260504213018 | 73 | 340 | 3.0 | 7.0 | 0.00 | 0.01 | 0.01 | 38 | 1009.6 |
| 20260504212518 | 73 | 335 | 2.0 | 6.0 | 0.00 | 0.01 | 0.01 | 36 | 1009.7 |
| 20260504212018 | 73 | 100 | 3.0 | 9.0 | 0.00 | 0.01 | 0.01 | 36 | 1009.7 |